Weather in Krasnomajskij

Russia / Novosibirsk Oblast     54°59′42″N   82°31′11″E
temp.,
°C
wind,
m/s
gust,
m/s
humid.,
%
clouds,
%
prec.,
mm/h
press.,
hPa
HPBL,
m
5 march, fri
fri501:00−7ssw71687100 0.0 1014462
04:00−7s71585100 0.0 1012472
07:00−7s71482100 0.0 1011566
10:00−7ssw81689100 0.1 1010657
13:00−4sw91588100 0.3 1010929
16:00−4wsw101583100 0.2 10131055
19:00−5sw8168299 0.3 1017783
22:00−5sw101791100 0.3 10161109
6 march, sat
sat601:00−5sw91591100 0.7 1016974
04:00−5sw91592100 0.8 1016886
07:00−6ssw101787100 1.2 1016765
10:00−6ssw101787100 0.1 1015819
13:00−6sw101588100 0.2 1014911
16:00−5sw101691100 0.2 10121018
19:00−4sw91689100 0.7 1011954
22:00−3sw91690100 0.1 1010899
7 march, sun
sun701:00−3sw81590100 0.2 1011734
04:00−4sw7149191 0.2 1012564
07:00−8w4118695 0.5 1015326
10:00−12wsw488980 0.0 1017186
13:00−8wsw478390 0.0 1019329
16:00−5sw3781100 0.0 1019471
19:00−9ssw2281100 0.0 101921
22:00−7sse469673 0.0 1018140
8 march, mon
mon801:00−2s7149086 0.1 1017706
04:00−2ssw81490100 0.0 1014617
07:00−4ssw71488100 0.0 1014430
10:00−4ssw71487100 0.0 1013445
13:00−1ssw81586100 0.0 1011575
16:000ssw71384100 0.0 1009621
19:00−2ssw61286100 0.0 1008642
22:00−2sw61388100 0.0 1008651
9 march, tue
tue901:00−1sw61195100 0.2 1009549
04:00−5wnw71290100 0.7 1012445
07:00−11w5109295 0.7 1019235
10:00−13wsw599370 0.0 1024267
13:00−10wsw598535 0.0 1026464
16:00−8sw598451 0.0 1026569
19:00−9s5108955 0.0 1025231
22:00−11ssw6138991 0.0 1024273